Location: Dumpton Point
(51.3500°N, 1.4433°E)
Time: 17:34:52
(UTC+00:00)

Cosmos 2221 - Pass Details

Date: 09 April 2020
Orbit: 592 x 616 km, 82.5° (Epoch: 03 June)

Event Time Altitude Azimuth Distance (km) Brightness Sun altitude
Exits shadow 23:23:25 29° 309° (NW) 1,142 4.2 -30.2°
Drops below altitude 10° 23:26:35 10° 353° (N) 1,982 6.1 -30.3°
Sets 23:29:02 0° 4° (N) 2,888 7.1 -30.3°
